Home   Weather   Blandford Forum   Past weeks
Flag for United Kingdom

Past Weather in Blandford Forum, England, United Kingdom — Yesterday and Last 2 Weeks

Now
46 °F

Passing clouds.


Feels Like: 39 °F
Forecast: 47 / 40 °F
Wind: 21 mph from West

Location: Bournemouth Airport

Current Time: Feb 17, 2020 at 1:05:35 am

Latest Report: Feb 16, 2020 at 11:50 pm


Visibility: N/A

Pressure: 29.74 "Hg

Humidity: 62%

Dew Point: 34 °F

Location of Blandford ForumLocation

Past Weather in Blandford Forum — Graph

°F

Blandford Forum Temperature Yesterday

Maximum temperature yesterday: 55 °F (at 6:20 am)
Minimum temperature yesterday: 45 °F (at 1:20 pm)
Average temperature yesterday: 48 °F

High & Low Weather Summary for the Past Weeks

 TemperatureHumidityPressure
High55 °F (Feb 2, 10:20 am)100% (Feb 5, 6:50 am)30.66 "Hg (Feb 5, 6:50 am)
Low28 °F (Feb 6, 7:20 am)49% (Feb 11, 2:20 pm)29.21 "Hg (Feb 9, 3:20 pm)
Average48 °F82%29.86 "Hg
* Reported Feb 2 7:50 am — Feb 16 11:50 pm, Blandford Forum. Weather by CustomWeather, © 2020

Note: Actual official high and low records may vary slightly from our data, if they occured in-between our weather recording intervals... More about our weather records

Blandford Forum Weather History for the Previous 24 Hours

Scroll right to see more
 ConditionsComfort  
Time TempWeatherWind HumidityBarometerVisibility
11:50 pm
Sun, Feb 16
46 °FPassing clouds.21 mph62%29.74 "HgN/A
11:20 pm46 °FPassing clouds.20 mph62%29.71 "HgN/A
10:50 pm45 °FPassing clouds.18 mph66%29.71 "HgN/A
10:20 pm45 °FPassing clouds.18 mph66%29.71 "HgN/A
9:50 pm45 °FPassing clouds.18 mph66%29.68 "HgN/A
9:20 pm45 °FClear.25 mph66%29.68 "Hg10 mi
8:50 pm46 °FPassing clouds.30 mph62%29.65 "HgN/A
8:20 pm48 °FPassing clouds.24 mph62%29.62 "HgN/A
7:50 pm48 °FPassing clouds.23 mph66%29.59 "HgN/A
7:20 pm48 °FPassing clouds.23 mph66%29.59 "HgN/A
6:50 pm46 °FPassing clouds.23 mph71%29.56 "HgN/A
6:20 pm48 °FPassing clouds.20 mph76%29.50 "HgN/A
5:50 pm46 °FPassing clouds.18 mph76%29.50 "HgN/A
5:20 pm46 °FPassing clouds.16 mph87%29.50 "HgN/A
4:50 pm46 °FScattered clouds.21 mph82%29.47 "HgN/A
4:20 pm48 °FScattered clouds.23 mph76%29.47 "HgN/A
3:50 pm48 °FLight rain. Scattered clouds.22 mph87%29.47 "HgN/A
3:20 pm48 °FScattered clouds.20 mph87%29.45 "HgN/A
2:50 pm46 °FLight rain. Broken clouds.15 mph93%29.42 "HgN/A
2:20 pm46 °FLight rain. Partly sunny.16 mph93%29.42 "HgN/A
1:50 pm46 °FLight rain. Partly sunny.20 mph87%29.42 "HgN/A
1:20 pm45 °FLight rain. Broken clouds.20 mph93%29.42 "Hg4 mi
12:50 pm46 °FRain. Fog.12 mph93%29.39 "Hg2 mi
12:20 pm46 °FRain. Fog.15 mph93%29.39 "Hg2 mi
11:50 am46 °FRain. Fog.15 mph93%29.36 "Hg3 mi
11:20 am48 °FDrizzle. Fog.16 mph94%29.39 "Hg2 mi
10:50 am48 °FDrizzle. Broken clouds.18 mph94%29.39 "Hg4 mi
10:20 am50 °FDrizzle. Fog.20 mph88%29.39 "Hg2 mi
9:50 am50 °FDrizzle. Broken clouds.16 mph94%29.39 "Hg5 mi
9:20 am50 °FScattered clouds.17 mph94%29.39 "Hg4 mi
8:50 am50 °FScattered clouds.15 mph94%29.39 "HgN/A
8:20 am50 °FDrizzle. Partly sunny.16 mph94%29.39 "HgN/A
7:50 am52 °FLight rain. Partly sunny.14 mph94%29.36 "HgN/A
7:20 am52 °FLight rain. Partly sunny.24 mph94%29.36 "Hg4 mi
6:50 am55 °FLight rain. Fog.31 mph94%29.33 "Hg1 mi
6:20 am55 °FLight rain. Fog.32 mph94%29.33 "Hg1 mi
Weather by CustomWeather, © 2020

See weather overview

Advertising